Home   Weather   St Helens   Past weeks

Flag for United Kingdom Past Weather in St Helens, England, United Kingdom — Yesterday and Last 2 Weeks

Now
45 °F

Low clouds.


Feels Like: 42 °F
Forecast: 44 / 48 °F
Wind: 5 mph from West

Location: Liverpool Airport

Current Time: Jan 17, 2017 at 12:59:30 am

Latest Report: Jan 16, 2017 at 11:50 pm


Visibility: N/A

Pressure: 30.45 "Hg

Humidity: 100%

Dew Point: 45 °F

Location of St HelensLocation

Past Weather in St Helens — Graph

°F

St Helens Temperature Yesterday

Maximum temperature yesterday: 50 °F (at 11:50 am)
Minimum temperature yesterday: 45 °F (at 10:50 pm)
Average temperature yesterday: 48 °F

High & Low Weather Summary for the Past Weeks

 TemperatureHumidityPressure
High54 °F (Jan 11, 3:50 am)100% (Jan 5, 4:20 am)30.57 "Hg (Jan 5, 4:20 am)
Low27 °F (Jan 5, 6:50 am)53% (Jan 13, 5:50 pm)29.45 "Hg (Jan 12, 4:50 pm)
Average43 °F85%30.17 "Hg
* Reported Jan 1 11:20 pm — Jan 16 11:50 pm, St Helens, Weather by CustomWeather, © 2017

Note: Actual official high and low records may vary slightly from our data, if they occured in-between our weather recording intervals... More about our weather records

Advertising

St Helens Weather History for the Previous 24 Hours

Scroll right to see more
 ConditionsComfort  
Time TempWeatherWind HumidityBarometerVisibility
11:50 pm
Mon, Jan 16
45 °FLow clouds.5 mph100%30.45 "HgN/A
11:20 pm45 °FMostly cloudy.3 mph100%30.45 "HgN/A
10:50 pm45 °FMostly cloudy.3 mph93%30.42 "HgN/A
10:20 pm46 °FOvercast.5 mph100%30.42 "HgN/A
9:50 pm46 °FDrizzle. Low clouds.5 mph100%30.42 "HgN/A
9:20 pm46 °FDrizzle. Mostly cloudy.5 mph93%30.42 "HgN/A
8:50 pm46 °FDrizzle. Mostly cloudy.3 mph100%30.42 "Hg4 mi
8:20 pm46 °FOvercast.2 mph93%30.42 "HgN/A
7:50 pm46 °FOvercast.5 mph93%30.39 "Hg6 mi
7:20 pm46 °FPassing clouds.3 mph93%30.39 "HgN/A
6:50 pm48 °FOvercast.6 mph94%30.39 "HgN/A
6:20 pm48 °FMostly cloudy.7 mph94%30.39 "HgN/A
5:50 pm48 °FMostly cloudy.9 mph94%30.39 "HgN/A
5:20 pm48 °FPassing clouds.7 mph94%30.36 "HgN/A
4:50 pm48 °FPassing clouds.8 mph94%30.36 "Hg6 mi
4:20 pm48 °FPartly sunny.10 mph94%30.36 "Hg6 mi
3:50 pm48 °FPartly sunny.9 mph94%30.36 "HgN/A
2:50 pm48 °FScattered showers. Broken clouds.9 mph94%30.36 "HgN/A
2:20 pm48 °FScattered showers. Broken clouds.12 mph94%30.36 "HgN/A
1:50 pm48 °FPartly sunny.10 mph94%30.33 "HgN/A
1:20 pm50 °FBroken clouds.13 mph88%30.33 "HgN/A
12:50 pm50 °FBroken clouds.17 mph88%30.33 "HgN/A
12:20 pm48 °FBroken clouds.13 mph94%30.33 "HgN/A
11:50 am50 °FBroken clouds.13 mph88%30.33 "HgN/A
11:20 am48 °FPartly sunny.14 mph87%30.36 "HgN/A
10:50 am48 °FPartly sunny.16 mph94%30.33 "HgN/A
10:20 am48 °FPartly sunny.17 mph94%30.33 "HgN/A
9:50 am48 °FPartly sunny.13 mph94%30.33 "HgN/A
9:20 am48 °FPartly sunny.13 mph94%30.33 "HgN/A
8:50 am48 °FLow clouds.10 mph94%30.33 "HgN/A
8:20 am48 °FMostly cloudy.13 mph94%30.33 "HgN/A
7:50 am48 °FDrizzle. Low clouds.15 mph94%30.33 "HgN/A
7:20 am48 °FDrizzle. Low clouds.16 mph94%30.30 "Hg6 mi
6:50 am48 °FLight rain. Low clouds.18 mph94%30.30 "Hg4 mi
6:20 am48 °FLow clouds.15 mph94%30.30 "HgN/A
5:50 am48 °FLight rain. Mostly cloudy.14 mph94%30.30 "Hg4 mi
5:20 am48 °FDrizzle. Mostly cloudy.10 mph94%30.30 "Hg4 mi
4:50 am48 °FDrizzle. Mostly cloudy.13 mph100%30.30 "Hg4 mi
4:20 am48 °FDrizzle. Low clouds.12 mph94%30.30 "Hg2 mi
3:50 am48 °FDrizzle. Mostly cloudy.13 mph94%30.30 "Hg1 mi
3:20 am48 °FDrizzle. Mostly cloudy.14 mph100%30.30 "Hg1 mi
2:50 am48 °FDrizzle. Low clouds.13 mph100%30.30 "Hg1 mi
2:20 am48 °FDrizzle. Low clouds.14 mph100%30.30 "Hg6 mi
1:50 am48 °FDrizzle. Low clouds.12 mph100%30.30 "Hg6 mi
1:20 am48 °FDrizzle. Low clouds.15 mph100%30.27 "Hg6 mi
12:20 am48 °FDrizzle. Low clouds.10 mph100%30.27 "Hg6 mi
Weather by CustomWeather, © 2017

See weather overviewHow to use our weather pages